Location: Marcé
(47.5801°N, 0.3280°W)
Time: 04:09:55
(UTC+01:00)

Vanguard 1 Rocket - Pass Details

Date: 08 December 2021
Orbit: 651 x 4225 km, 34.3° (Epoch: 26 January)

Event Time Altitude Azimuth Distance (km) Brightness Sun altitude
Exits shadow 02:39:00 25° 115° (ESE) 3,844 10.5 -57.4°
Drops below altitude 10° 02:46:41 10° 96° (E) 5,818 11.7 -56.4°
Sets 02:52:57 0° 89° (E) 7,414 12.4 -55.5°
